Findlay, OH

4:15 PM EDT on April 23, 2017 (GMT -0400)
Findlay

Weather History for KFDY - August, 2013

Change the Weather History Date:

Thursday, August 1, 2013

  Actual Average Record
Temperature  
Mean Temperature 70 °F -  
Max Temperature 78 °F 81 °F 96 °F (2002)
Min Temperature 63 °F 61 °F 33 °F (1996)
Cooling Degree Days 5    
Growing Degree Days 20 (Base 50)    
Moisture  
Dew Point 63 °F    
Average Humidity 81    
Maximum Humidity 96    
Minimum Humidity 60    
Precipitation  
Precipitation 0.00 in - - ()
Sea Level Pressure  
Sea Level Pressure 29.92 in    
Wind  
Wind Speed 7 mph (WNW)    
Max Wind Speed 13 mph    
Max Gust Speed -    
Visibility 7 miles    
Events Rain , Thunderstorm    
Averages and records for this station are not official NWS values.
T = Trace of Precipitation, MM = Missing Value Source: NWS Daily Summary

Daily Weather History Graph

Daily Weather History Graph

Search for Another Location

Airport or City:

Trip Planner

Search our weather history database for the weather conditions in past years. The results will help you decide how hot, cold, wet, or windy it might be!

Date:

Astronomy

Aug. 01, 2013 Rise Set
Actual Time 6:30 AM EDT 8:50 PM EDT
Civil Twilight 5:59 AM EDT 9:21 PM EDT
Nautical Twilight 5:21 AM EDT 9:59 PM EDT
Astronomical Twilight 4:39 AM EDT 10:41 PM EDT
Moon 2:06 AM EDT (8/1) 4:58 PM EDT (8/1)
Length of Visible Light 15h 21m
Length of Day
14h 19m
Waning Crescent, 23% of the Moon is Illuminated
Aug 1
Waning Crescent
Aug 6
New
Aug 14
First Quarter
Aug 20
Full
Aug 28
Last Quarter

Hourly Weather History & Observations

Time (EDT) Temp. Dew Point Humidity Pressure Visibility Wind Dir Wind Speed Gust Speed Precip Events Conditions
12:31 AM 68.0 °F 66.2 °F 94% 29.92 in 4.0 mi WSW 5.8 mph - 0.00 in   Overcast
12:53 AM 68.0 °F 66.9 °F 96% 29.91 in 4.0 mi West 6.9 mph - 0.00 in   Overcast
1:13 AM 68.0 °F 66.2 °F 94% 29.92 in 2.5 mi West 6.9 mph - N/A   Overcast
1:22 AM 68.0 °F 66.2 °F 94% 29.92 in 3.0 mi West 6.9 mph - 0.00 in Rain Light Rain
1:53 AM 68.0 °F 66.9 °F 96% 29.88 in 4.0 mi West 6.9 mph - 0.00 in   Overcast
2:12 AM 68.0 °F 66.2 °F 94% 29.90 in 4.0 mi WNW 5.8 mph - N/A   Overcast
2:53 AM 68.0 °F 66.9 °F 96% 29.88 in 5.0 mi WNW 6.9 mph - N/A   Overcast
3:03 AM 68.0 °F 66.2 °F 94% 29.90 in 6.0 mi WNW 5.8 mph - N/A   Overcast
3:53 AM 68.0 °F 66.0 °F 93% 29.88 in 7.0 mi NW 8.1 mph - N/A   Overcast
4:05 AM 68.0 °F 66.2 °F 94% 29.90 in 7.0 mi NW 6.9 mph - N/A   Overcast
4:45 AM 68.0 °F 66.2 °F 94% 29.91 in 6.0 mi WNW 8.1 mph - N/A   Overcast
4:53 AM 68.0 °F 66.0 °F 93% 29.88 in 6.0 mi WNW 9.2 mph - N/A   Overcast
5:30 AM 66.2 °F 64.4 °F 94% 29.91 in 6.0 mi NW 8.1 mph - N/A   Overcast
5:53 AM 66.9 °F 64.9 °F 93% 29.90 in 5.0 mi NW 6.9 mph - N/A   Overcast
6:05 AM 66.2 °F 64.4 °F 94% 29.93 in 5.0 mi WNW 9.2 mph - N/A   Overcast
6:12 AM 66.2 °F 64.4 °F 94% 29.93 in 5.0 mi NW 6.9 mph - N/A   Mostly Cloudy
6:53 AM 66.0 °F 64.0 °F 93% 29.92 in 4.0 mi WNW 6.9 mph - N/A   Overcast
7:10 AM 64.4 °F 62.6 °F 94% 29.94 in 4.0 mi WNW 8.1 mph - N/A   Scattered Clouds
7:27 AM 66.2 °F 62.6 °F 88% 29.94 in 4.0 mi WNW 5.8 mph - N/A   Scattered Clouds
7:44 AM 64.4 °F 62.6 °F 94% 29.95 in 4.0 mi NW 6.9 mph - N/A   Mostly Cloudy
7:53 AM 66.0 °F 63.0 °F 90% 29.94 in 4.0 mi NW 6.9 mph - N/A   Mostly Cloudy
8:53 AM 66.0 °F 62.1 °F 87% 29.94 in 7.0 mi NW 6.9 mph - N/A   Overcast
9:53 AM 66.9 °F 61.0 °F 81% 29.95 in 9.0 mi WNW 9.2 mph - N/A   Overcast
10:05 AM 66.2 °F 60.8 °F 83% 29.97 in 10.0 mi West 9.2 mph - N/A   Overcast
10:30 AM 66.2 °F 60.8 °F 83% 29.97 in 9.0 mi West 8.1 mph - N/A   Overcast
10:53 AM 69.1 °F 62.1 °F 78% 29.95 in 10.0 mi West 8.1 mph - N/A   Overcast
11:44 AM 69.8 °F 62.6 °F 78% 29.96 in 10.0 mi WSW 8.1 mph - N/A   Mostly Cloudy
11:53 AM 71.1 °F 62.1 °F 73% 29.95 in 10.0 mi West 10.4 mph - N/A   Mostly Cloudy
12:02 PM 71.6 °F 62.6 °F 73% 29.97 in 10.0 mi West 8.1 mph - N/A   Scattered Clouds
12:17 PM 71.6 °F 62.6 °F 73% 29.97 in 10.0 mi WSW 8.1 mph - N/A   Mostly Cloudy
12:53 PM 73.0 °F 62.1 °F 68% 29.94 in 10.0 mi WSW 9.2 mph - N/A   Mostly Cloudy
1:26 PM 75.2 °F 62.6 °F 65% 29.96 in 10.0 mi West 11.5 mph - N/A   Scattered Clouds
1:53 PM 75.9 °F 62.1 °F 62% 29.93 in 10.0 mi West 11.5 mph - N/A   Scattered Clouds
2:53 PM 77.0 °F 62.1 °F 60% 29.91 in 10.0 mi West 5.8 mph - N/A   Partly Cloudy
3:53 PM 75.0 °F 63.0 °F 66% 29.90 in 10.0 mi SW 10.4 mph - N/A   Clear
4:12 PM 75.2 °F 62.6 °F 65% 29.92 in 10.0 mi WSW 10.4 mph - N/A Thunderstorm Partly Cloudy
4:51 PM 73.4 °F 60.8 °F 65% 29.93 in 10.0 mi West 6.9 mph - N/A   Mostly Cloudy
4:53 PM 73.9 °F 61.0 °F 64% 29.91 in 10.0 mi West 6.9 mph - N/A   Mostly Cloudy
5:53 PM 77.0 °F 63.0 °F 62% 29.91 in 10.0 mi West 12.7 mph - N/A   Scattered Clouds
6:53 PM 75.9 °F 64.0 °F 67% 29.89 in 10.0 mi WSW 8.1 mph - N/A   Clear
7:53 PM 73.0 °F 63.0 °F 71% 29.90 in 10.0 mi WSW 5.8 mph - N/A   Partly Cloudy
8:53 PM 71.1 °F 57.9 °F 63% 29.90 in 10.0 mi NW 4.6 mph - N/A   Clear
9:53 PM 68.0 °F 55.0 °F 63% 29.92 in 10.0 mi WNW 5.8 mph - N/A   Clear
10:53 PM 63.0 °F 55.0 °F 75% 29.94 in 10.0 mi West 5.8 mph - N/A   Clear
11:53 PM 64.0 °F 53.1 °F 67% 29.93 in 10.0 mi NW 3.5 mph - N/A   Clear